Woensdrecht, Netherlands

1:07 PM CEST on May 29, 2017 (GMT +0200)
Woensdrecht Air Base

Weather History for EHWO - May, 2013

Change the Weather History Date:

Monday, May 13, 2013

  Actual Average Record
Temperature  
Mean Temperature 52 °F -  
Max Temperature 57 °F 64 °F 87 °F (1998)
Min Temperature 46 °F 48 °F 32 °F (2012)
Degree Days  
Heating Degree Days 14    
Growing Degree Days 2 (Base 50)    
Moisture  
Dew Point 47 °F    
Average Humidity 86    
Maximum Humidity 100    
Minimum Humidity 58    
Precipitation  
Precipitation 0.00 in - - ()
Sea Level Pressure  
Sea Level Pressure 29.90 in    
Wind  
Wind Speed 11 mph ()    
Max Wind Speed 20 mph    
Max Gust Speed 22 mph    
Visibility 5.1 miles    
Events Rain    
Averages and records for this station are not official NWS values.
T = Trace of Precipitation, MM = Missing Value Source: Averaged Metar Reports

Daily Weather History Graph

Daily Weather History Graph

Search for Another Location

Airport or City:

Trip Planner

Search our weather history database for the weather conditions in past years. The results will help you decide how hot, cold, wet, or windy it might be!

Date:

Astronomy

May. 13, 2013 Rise Set
Actual Time 5:54 AM CEST 9:25 PM CEST
Civil Twilight 5:13 AM CEST 10:06 PM CEST
Nautical Twilight 4:18 AM CEST 11:01 PM CEST
Astronomical Twilight 2:59 AM CEST 12:22 AM CEST
Moon 8:23 AM CEST (5/13) No Moon Set
Length of Visible Light 16h 52m
Length of Day
15h 30m
Waxing Crescent, 10% of the Moon is Illuminated
May 13
Waxing Crescent
May 18
First Quarter
May 25
Full
May 31
Last Quarter
Jun 8
New

Hourly Weather History & Observations

Time (CEST) Temp. Windchill Dew Point Humidity Pressure Visibility Wind Dir Wind Speed Gust Speed Precip Events Conditions
12:14 AM 46.4 °F 42.4 °F 44.6 °F 93% 29.98 in 4.3 mi South 8.1 mph - N/A   Drizzle
12:25 AM 46.4 °F 42.4 °F 44.6 °F 93% 29.95 in 3.7 mi South 8.1 mph - N/A Rain Light Rain
12:35 AM 46.4 °F 42.4 °F 44.6 °F 93% 29.95 in 5.6 mi South 8.1 mph - N/A   Light Drizzle
12:46 AM 46.4 °F 41.9 °F 44.6 °F 93% 29.95 in 6.2 mi South 9.2 mph - N/A   Light Drizzle
12:55 AM 46.4 °F 41.9 °F 44.6 °F 93% 29.95 in 4.3 mi South 9.2 mph - N/A   Light Drizzle
12:57 AM 46.4 °F 41.9 °F 44.6 °F 93% 29.95 in 3.7 mi South 9.2 mph - N/A   Overcast
1:04 AM 46.4 °F 41.9 °F 44.6 °F 93% 29.95 in 3.1 mi South 9.2 mph - N/A   Light Drizzle
1:17 AM 46.4 °F 41.9 °F 46.4 °F 100% 29.95 in 5.6 mi SSW 9.2 mph - N/A   Drizzle
1:25 AM 48.2 °F - 46.4 °F 93% 29.95 in 6.2 mi SSW 9.2 mph - N/A Rain Drizzle
1:46 AM 48.2 °F - 46.4 °F 93% 29.92 in 6.2 mi SSW 10.4 mph - N/A   Drizzle
1:55 AM 48.2 °F - 46.4 °F 93% 29.92 in 6.2 mi SSW 11.5 mph - N/A   Drizzle
1:56 AM 48.2 °F - 46.4 °F 93% 29.92 in 6.2 mi SSW 11.5 mph - N/A   Light Drizzle
2:07 AM 48.2 °F - 46.4 °F 93% 29.92 in 4.3 mi SSW 9.2 mph - N/A   Light Drizzle
2:13 AM 48.2 °F - 46.4 °F 93% 29.92 in 4.3 mi SSW 10.4 mph 21.9 mph N/A Rain Light Rain
2:20 AM 48.2 °F - 46.4 °F 93% 29.92 in 5.6 mi SSW 11.5 mph - N/A Rain Light Rain
2:25 AM 48.2 °F - 46.4 °F 93% 29.92 in 5.6 mi SSW 11.5 mph - N/A   Drizzle
2:26 AM 48.2 °F - 46.4 °F 93% 29.92 in 5.0 mi SSW 11.5 mph - N/A   Light Drizzle
2:33 AM 48.2 °F - 46.4 °F 93% 29.92 in 4.3 mi SSW 10.4 mph - N/A   Overcast
2:47 AM 48.2 °F - 46.4 °F 93% 29.92 in 5.6 mi SSW 10.4 mph - N/A   Overcast
2:55 AM 48.2 °F - 46.4 °F 93% 29.92 in 5.6 mi SW 10.4 mph - N/A Rain Light Rain
3:02 AM 48.2 °F - 46.4 °F 93% 29.89 in 4.3 mi SW 11.5 mph - N/A   Drizzle
3:25 AM 48.2 °F - 48.2 °F 100% 29.89 in 3.1 mi SW 11.5 mph - N/A Rain Light Rain
3:47 AM 50.0 °F - 48.2 °F 94% 29.89 in 3.7 mi SW 10.4 mph - N/A   Overcast
3:48 AM 50.0 °F - 48.2 °F 94% 29.89 in - SW 10.4 mph - N/A   Overcast
3:55 AM 50.0 °F - 48.2 °F 94% 29.89 in - SW 10.4 mph - N/A   Overcast
4:25 AM 50.0 °F - 48.2 °F 94% 29.89 in 1.9 mi SW 9.2 mph - N/A   Drizzle
4:55 AM 50.0 °F - 50.0 °F 100% 29.89 in 1.7 mi SW 10.4 mph - N/A   Heavy Drizzle
5:25 AM 51.8 °F - 50.0 °F 94% 29.89 in 1.6 mi WSW 13.8 mph - N/A   Drizzle
5:55 AM 51.8 °F - 50.0 °F 94% 29.89 in 1.8 mi SW 13.8 mph - N/A   Drizzle
6:21 AM 51.8 °F - 50.0 °F 94% 29.89 in - WSW 16.1 mph - N/A   Overcast
6:25 AM 51.8 °F - 50.0 °F 94% 29.89 in - WSW 15.0 mph - N/A   Overcast
6:55 AM 51.8 °F - 50.0 °F 94% 29.89 in - WSW 12.7 mph - N/A   Overcast
7:11 AM 51.8 °F - 50.0 °F 94% 29.89 in 1.8 mi WSW 13.8 mph - N/A   Drizzle
7:25 AM 51.8 °F - 50.0 °F 94% 29.89 in 1.6 mi SW 12.7 mph - N/A   Heavy Drizzle
7:55 AM 51.8 °F - 50.0 °F 94% 29.89 in 1.7 mi WSW 15.0 mph - N/A   Drizzle
8:25 AM 51.8 °F - 50.0 °F 94% 29.89 in 1.7 mi WSW 13.8 mph - N/A   Drizzle
8:48 AM 51.8 °F - 50.0 °F 94% 29.89 in - WSW 15.0 mph - N/A   Overcast
8:55 AM 51.8 °F - 50.0 °F 94% 29.89 in 2.8 mi WSW 15.0 mph - N/A   Drizzle
9:05 AM 51.8 °F - 50.0 °F 94% 29.89 in 5.0 mi WSW 13.8 mph - N/A   Overcast
9:06 AM 51.8 °F - 50.0 °F 94% 29.89 in 5.6 mi WSW 15.0 mph - N/A   Overcast
9:25 AM 51.8 °F - 50.0 °F 94% 29.89 in 6.2 mi SW 13.8 mph - N/A   Mostly Cloudy
9:55 AM 53.6 °F - 50.0 °F 88% 29.89 in 6.2 mi WSW 15.0 mph - N/A   Overcast
10:03 AM 53.6 °F - 50.0 °F 88% 29.89 in 6.2 mi WSW 17.3 mph - N/A   Overcast
10:25 AM 53.6 °F - 50.0 °F 88% 29.89 in 6.2 mi WSW 13.8 mph - N/A   Overcast
10:39 AM 51.8 °F - 50.0 °F 94% 29.89 in 4.3 mi WSW 12.7 mph - N/A Rain Light Rain
10:50 AM 51.8 °F - 50.0 °F 94% 29.89 in 4.3 mi WSW 15.0 mph - N/A Rain Light Rain Showers
10:55 AM 51.8 °F - 50.0 °F 94% 29.89 in 3.7 mi WSW 13.8 mph - N/A Rain Light Rain Showers
11:01 AM 51.8 °F - 50.0 °F 94% 29.89 in - WSW 15.0 mph - N/A Rain Light Rain
11:03 AM 51.8 °F - 50.0 °F 94% 29.89 in - WSW 16.1 mph - N/A Rain Heavy Drizzle
11:04 AM 51.8 °F - 50.0 °F 94% 29.89 in 1.8 mi WSW 16.1 mph - N/A   Heavy Drizzle
11:15 AM 50.0 °F - 48.2 °F 94% 29.92 in - WSW 19.6 mph - N/A Rain Light Rain Showers
11:25 AM 50.0 °F - 48.2 °F 94% 29.92 in 6.2 mi WSW 15.0 mph - N/A   Drizzle
11:44 AM 53.6 °F - 50.0 °F 88% 29.92 in 6.2 mi West 11.5 mph - N/A   Mostly Cloudy
11:47 AM 53.6 °F - 51.8 °F 94% 29.92 in 6.2 mi WSW 11.5 mph - N/A   Mostly Cloudy
11:55 AM 53.6 °F - 51.8 °F 94% 29.89 in 6.2 mi WSW 11.5 mph - N/A   Mostly Cloudy
12:19 PM 55.4 °F - 51.8 °F 88% 29.89 in 6.2 mi WSW 12.7 mph - N/A   Mostly Cloudy
12:25 PM 55.4 °F - 50.0 °F 82% 29.89 in 6.2 mi WSW 13.8 mph - N/A   Mostly Cloudy
12:28 PM 55.4 °F - 51.8 °F 88% 29.89 in 6.2 mi WSW 13.8 mph - N/A   Mostly Cloudy
12:45 PM 55.4 °F - 50.0 °F 82% 29.89 in 6.2 mi WSW 13.8 mph - N/A   Mostly Cloudy
12:46 PM 55.4 °F - 48.2 °F 77% 29.89 in 6.2 mi WSW 13.8 mph - N/A   Mostly Cloudy
12:55 PM 55.4 °F - 48.2 °F 77% 29.89 in 6.2 mi WSW 13.8 mph - N/A   Mostly Cloudy
1:20 PM 55.4 °F - 48.2 °F 77% 29.89 in 6.2 mi WSW 18.4 mph - N/A   Mostly Cloudy
1:25 PM 53.6 °F - 48.2 °F 82% 29.89 in 6.2 mi WSW 18.4 mph - N/A   Mostly Cloudy
1:29 PM 55.4 °F - 48.2 °F 77% 29.89 in 6.2 mi WSW 17.3 mph - N/A   Mostly Cloudy
1:55 PM 53.6 °F - 46.4 °F 77% 29.89 in 6.2 mi WSW 17.3 mph - N/A   Overcast
2:25 PM 55.4 °F - 46.4 °F 72% 29.89 in 6.2 mi West 17.3 mph - N/A   Overcast
2:55 PM 57.2 °F - 48.2 °F 72% 29.89 in 6.2 mi West 16.1 mph - N/A   Overcast
3:25 PM 55.4 °F - 44.6 °F 67% 29.89 in 6.2 mi WSW 15.0 mph - N/A   Mostly Cloudy
3:55 PM 55.4 °F - 46.4 °F 72% 29.89 in 6.2 mi WSW 12.7 mph - N/A   Mostly Cloudy
4:25 PM 55.4 °F - 44.6 °F 67% 29.89 in 6.2 mi WSW 18.4 mph - N/A   Mostly Cloudy
4:33 PM 53.6 °F - 42.8 °F 67% 29.89 in 6.2 mi WSW 19.6 mph - N/A   Mostly Cloudy
4:55 PM 55.4 °F - 41.0 °F 58% 29.89 in 6.2 mi WSW 18.4 mph - N/A   Overcast
5:25 PM 55.4 °F - 41.0 °F 58% 29.89 in 6.2 mi WSW 18.4 mph - N/A   Scattered Clouds
5:55 PM 55.4 °F - 42.8 °F 63% 29.89 in 6.2 mi WSW 16.1 mph - N/A   Overcast
6:25 PM 55.4 °F - 41.0 °F 58% 29.86 in 6.2 mi WSW 18.4 mph - N/A   Overcast
6:55 PM 55.4 °F - 42.8 °F 63% 29.86 in 6.2 mi WSW 17.3 mph - N/A   Mostly Cloudy
7:25 PM 55.4 °F - 41.0 °F 58% 29.86 in 6.2 mi SW 16.1 mph - N/A   Scattered Clouds
7:55 PM 53.6 °F - 41.0 °F 62% 29.86 in 6.2 mi SW 18.4 mph - N/A   Overcast
8:25 PM 53.6 °F - 41.0 °F 62% 29.86 in 6.2 mi WSW 17.3 mph - N/A   Overcast
8:55 PM 51.8 °F - 41.0 °F 67% 29.86 in 6.2 mi SW 13.8 mph - N/A   Overcast
9:25 PM 51.8 °F - 41.0 °F 67% 29.86 in 6.2 mi SW 12.7 mph - N/A   Partly Cloudy
10:55 PM 50.0 °F - 39.2 °F 66% 29.86 in 6.2 mi SW 12.7 mph - N/A   Overcast
11:25 PM 50.0 °F - 41.0 °F 71% 29.83 in 6.2 mi SW 13.8 mph - N/A   Mostly Cloudy
11:55 PM 48.2 °F - 41.0 °F 76% 29.83 in 6.2 mi SW 12.7 mph - N/A   Overcast